Other Public Products
Issued by NWS Grand Forks, ND

Home | Current Version | Previous Version | Text Only | Print | Product List | Glossary Off
Versions: 1 2 3 4 5 6 7 8 9 10 11 12 13 14 15 16 17 18 19 20 21 22 23 24 25 26 27 28 29 30 31 32 33 34 35 36 37 38 39 40 41 42 43 44 45 46 47 48 49 50

000
FPUS83 KFGF 051610
OPUFGF
PRAIRIE TO PINES WEATHER ROUNDUP
NATIONAL WEATHER SERVICE EASTERN NORTH DAKOTA/GRAND FORKS ND
1100 AM CDT SUN JUL 05 2015

 **SATELLITE DATA USED TO AUGMENT SKY COVER AT AUTOMATED STATIONS**
 *****  WEATHER ACROSS EASTERN NORTH DAKOTA  *****

CITY           SKY/WX    TMP DP  RH WIND       PRES   REMARKS
GRAND FORKS    CLOUDY    74  69  85 S8        29.72F
GRAND FORKS AF CLOUDY    73  68  85 S6        29.73F
GRAND CITY NWS   N/A     73 N/A N/A SW7         N/A
BUXTON         NOT AVBL
DEVILS LAKE    CLOUDY    64  61  88 NE17G25   29.74F
FARGO          MOSUNNY   81  67  62 S17       29.74R
WAHPETON ARPT  MOSUNNY   79  64  61 S14       29.77R
$$

 *****  WEATHER ACROSS CENTRAL AND WESTERN NORTH DAKOTA  *****

CITY           SKY/WX    TMP DP  RH WIND       PRES   REMARKS
JAMESTOWN      CLOUDY    74  68  81 W10       29.77S
BISMARCK       PTSUNNY   72  62  71 N12       29.85R
MINOT          CLOUDY    67  63  87 N9        29.81F FOG
MINOT AFB      CLOUDY    68  68 100 N8        29.81S
GARRISON         N/A     68  62  81 NE13      29.82R
WILLISTON      PTSUNNY   71  55  56 N22G33    29.92R HAZE
DICKINSON      CLOUDY    66  61  84 SE10      29.84F
HETTINGER      LGT RAIN  63  60  90 NE24G32   29.84F
$$

 *****  OTHER OBSERVATIONS NORTHEAST NORTH DAKOTA  *****

CITY           SKY/WX    TMP DP  RH WIND       PRES   REMARKS
WALHALLA       LGT RAIN  64  64 100 MISG      29.80R
LANGDON        RAIN      64  64 100 N13       29.81F
CAVALIER       TSTM      64  64 100 NW5       29.79R
GRAFTON        TSTM      66  66 100 N16G31    29.76R VSB<1/4
CANDO          PTSUNNY   64  64 100 N9        29.79S FOG
FORT TOTTEN      N/A     65  65 100 NE6       29.95S
ROLLA          CLOUDY    63  63 100 NE9       29.82F FOG
RUGBY          NOT AVBL
 ***** THE ABOVE OBSERVATIONS ARE NON NWS ARE NOT QUALITY
        CONTROLLED AND MAY MIS-REPORT RAIN FOR SNOW...
$$

 *****  OTHER OBSERVATIONS SOUTHEAST NORTH DAKOTA *****

CITY           SKY/WX    TMP DP  RH WIND       PRES   REMARKS
COOPERSTOWN    NOT AVBL
VALLEY CITY    PTSUNNY   75  68  78 SW14G24   29.76S
OAKES            N/A     77  73  88 SW15G22   29.76S
GWINNER        FAIR      81  68  65 SW20G28   29.75F
SHEYENNE NWR     N/A     83  70  64 SW13      29.95S
BUFFALO        NOT AVBL
WYNDMERE       NOT AVBL
 ***** THE ABOVE OBSERVATIONS ARE NON NWS ARE NOT QUALITY
       CONTROLLED AND MAY MIS-REPORT RAIN FOR SNOW...
$$

  *****  WEATHER ACROSS NORTHERN MINNESOTA  *****

CITY           SKY/WX    TMP DP  RH WIND       PRES   REMARKS
FLAG ISLAND    CLOUDY    70  64  83 CALM      29.76
WARROAD        CLOUDY    70  64  83 E3        29.80R
ROSEAU         LGT RAIN  68  63  83 NE5       29.77S
HALLOCK        TSTM      66  66 100 NE7       29.74F
THF RVR FALLS  CLOUDY    72  66  83 E3        29.76F
HALSTAD        NOT AVBL
FOSSTON        MOSUNNY   75  66  73 S18G25    29.78R
BAUDETTE       CLOUDY    72  65  78 CALM      29.78S
WASKISH        CLOUDY    73  68  83 CALM      29.77R
CROOKSTON      CLOUDY    75  70  83 SW12      29.76R
$$
  *****  WEATHER ACROSS CENTRAL AND WEST MINNESOTA  *****

CITY           SKY/WX    TMP DP  RH WIND       PRES   REMARKS
BEMIDJI        PTSUNNY   76  67  72 S12       29.78R
PARK RAPIDS    MOSUNNY   80  65  59 S14       29.81R
WADENA         SUNNY     79  64  61 S10       29.81R
DETROIT LAKES  SUNNY     79  64  61 SW15      29.81R
MOORHEAD       MOSUNNY   79  70  73 SW12      29.76S
FERGUS FALLS   SUNNY     79  66  65 S10       29.78R
ELBOW LAKE     FAIR      79  66  65 S12G18    29.79R
MORRIS MN      MOSUNNY   81  66  61 SE12      29.78R
STAPLES        MOSUNNY   77  63  61 S9        29.82S
WHEATON        PTSUNNY   79  66  65 S10       29.78R
$$
  *****  WEATHER ELSEWHERE ACROSS MINNESOTA  *****

CITY           SKY/WX    TMP DP  RH WIND       PRES   REMARKS
DULUTH         PTSUNNY   74  63  68 S12       29.88F
INTRNTL FALLS  MOSUNNY   76  67  73 SE5       29.79F
ELY            PTSUNNY   75  61  60 S7        29.86S
CLOQUET        MOSUNNY   75  63  64 S7G16     29.86F
BRAINERD       MOSUNNY   78  64  61 S15       29.82F
HIBBING        PTSUNNY   76  65  68 VRB7      29.83F
ALEXANDRIA     SUNNY     79  66  64 S9        29.82F
SAINT CLOUD    PTSUNNY   76  64  66 S10       29.83F
MINNEAPOLIS    CLOUDY    77  63  61 S13       29.90F
$$

  *****  WEATHER ACROSS SOUTH DAKOTA  *****

CITY           SKY/WX    TMP DP  RH WIND       PRES   REMARKS
SIOUX FALLS    MOSUNNY   76  68  76 S18G25    29.82F
BROOKINGS      SUNNY     79  66  65 S15G29    29.81F
WATERTOWN      MOSUNNY   81  65  58 S21G30    29.79S
HURON          MOSUNNY   81  69  67 S18G30    29.75S
SISSETON         N/A     84  64  50 SW16G25   29.74R
ABERDEEN       MOSUNNY   79  68  69 MISG      29.75S
MITCHELL       SUNNY     83  68  60 S21G32    29.77F
PIERRE         PTSUNNY   80  69  69 E8        29.75R
MOBRIDGE       PTSUNNY   80  73  79 NW14      29.78R
RAPID CITY     MOSUNNY   78  65  63 N18G25    29.83R
$$

  *****  SOME WEATHER IN NEARBY STATES *****

CITY           SKY/WX    TMP DP  RH WIND       PRES   REMARKS
GLASGOW MT     PTSUNNY   66  48  52 N16       30.02S
GREAT FALLS MT LGT RAIN  51  50  96 N14       30.16S FOG
CHEYENNE WY    SUNNY     83  51  33 W13       30.03S
SCOTTSBLUFF NE SUNNY     83  64  52 CALM      29.87S
OMAHA NE       CLOUDY    72  66  81 N7        29.97R
DES MOINES IA  CLOUDY    80  68  66 S10       29.98F
DAVENPORT IA   SUNNY     78  65  63 S10       30.06F
CHICAGO IL     MOSUNNY   78  59  51 SW9       30.08S
EAU CLAIRE WI  MOSUNNY   78  62  57 S10       29.96F
LA CROSSE WI   SUNNY     78  63  59 S9        29.99F
$$

  *****  SOME NATIONAL WEATHER *****

CITY           SKY/WX    TMP DP  RH WIND       PRES   REMARKS
LA GUARDIA NY  PTSUNNY   79  61  53 CALM      30.12S
RALEIGH NC     PTSUNNY   87  73  62 SW8       30.12F HX  94
ATLANTA GA     PTSUNNY   79  66  64 W10       30.15S
NEW ORLEANS LA CLOUDY    87  74  64 SW7       30.13R HX  95
OKLAHOMA CITY  MOSUNNY   86  73  65 SW15      29.99F HX  93
ALBUQUERQUE NM PTSUNNY   76  56  49 S5        30.16S
SALT LAKE CITY LGT RAIN  69  67  93 N10       30.05R
LOS ANGELES CA CLOUDY    64  60  87 W6        29.99S
BOISE ID       CLOUDY    80  54  40 N7        29.89S
SEATTLE WA     MOSUNNY   73  55  53 W6        29.85S
$$

*** WEATHER ACROSS MANITOBA...SASKATCHEWAN AND ONTARIO ***
                ***ONTARIO***

CITY           SKY/WX    TMP DP  RH WIND       PRES   REMARKS
GERALDTON      PTSUNNY   70  61  73 S9        29.89S
THUNDER BAY    CLOUDY    64  57  77 E8        29.90F
SIOUX LOOKOUT  PTSUNNY   75  64  69 SW9       29.80F
TORONTO        MOSUNNY   75  57  53 SE8       30.12S
BIG TROUT LK   SUNNY     66  59  77 W8        29.69S HAZE
PICKLE LAKE    PTSUNNY   70  61  73 W9        29.77F
DRYDEN         CLOUDY    72  64  78 S6        29.81S
KENORA         CLOUDY    70  64  83 SE5       29.79F
$$
                *** MANITOBA***

CITY           SKY/WX    TMP DP  RH WIND       PRES   REMARKS
BRANDON        CLOUDY    64  61  88 N3        29.83S FOG
DAUPHIN        MOSUNNY   66  55  68 NW9       29.83R HAZE
ISLAND LAKE    CLOUDY    63  57  82 W5        29.71S SMOKE
PILOT MOUND      N/A     64  61  88 NE2         N/A
THE PAS        CLOUDY    55  46  71 N12       29.84R
THOMPSON       LGT RAIN  48  41  76 NW13G20   29.74S
WINNIPEG       CLOUDY    66  64  94 N6        29.78S SMOKE
LYNN LAKE      LGT RAIN  46  45  93 N9G25     29.89R
$$
                ***SASKATCHEWAN***

CITY           SKY/WX    TMP DP  RH WIND       PRES   REMARKS
ESTEVAN        CLOUDY    66  59  77 NW18G28   29.91R SMOKE
KINDERSLEY     PTSUNNY   57  52  82 NW14G22   30.05S
LLOYDMINSTER   CLOUDY    59  50  72 N9        30.06S SMOKE
PRINCE ALBERT  NOT AVBL
REGINA         CLOUDY    66  52  59 N13       29.96R SMOKE
YORKTON        MOSUNNY   61  52  72 NW9       29.90R HAZE
N. BATTLEFORD  PTSUNNY   59  50  72 NW12      30.05R HAZE


USA.gov is the U.S. government's official web portal to all federal, state and local government web resources and services.